{"data":{"norad_id":41937,"epoch":"2026-09-20T03:08:06.184896Z","epoch_age_seconds":57612,"freshness":"FRESH","line1":"1 41937U 17004A   26263.13062714 -.00000169  00000+0  00000+0 0  9994","line2":"2 41937   2.4277  45.4248 0001987 115.9102 223.5189  1.00272497 35548","mean_motion":1.00272497,"eccentricity":0.0001987,"inclination_deg":2.4277,"raan_deg":45.4248,"arg_perigee_deg":115.9102,"mean_anomaly_deg":223.5189,"bstar":0,"rev_number":3554,"period_min":1436.0867068066,"perigee_km":35778.017270345,"apogee_km":35794.773455506,"semimajor_km":42164.532362925,"source":"CELESTRAK","updated_at":"2026-09-20T09:00:35.250871Z"}}